Weather History for Joplin, MO

Change the Weather History Date:

Friday, January 11, 2013

  Actual Average Record
Temperature  
Mean Temperature 57 °F 34 °F  
Max Temperature 66 °F 44 °F 71 °F (1995)
Min Temperature 47 °F 25 °F -8 °F (1977)
Degree Days  
Heating Degree Days 8 30  
Month to date heating degree days 298 330  
Since 1 July heating degree days 1795 1947  
Cooling Degree Days 0 0  
Month to date cooling degree days 0 0  
Year to date cooling degree days 0 0  
Growing Degree Days 5 (Base 50)    
Moisture  
Dew Point 44 °F    
Average Humidity 69    
Maximum Humidity 93    
Minimum Humidity 44    
Precipitation  
Precipitation 0.00 in 0.06 in 0.17 in (1993)
Month to date precipitation 0.31 0.76  
Year to date precipitation 0.31 0.76  
Snow  
Snow 0.00 in - - ()
Month to date snowfall 0.0  
Snow Depth 0.00 in    
Sea Level Pressure  
Sea Level Pressure 29.77 in    
Wind  
Wind Speed 19 mph (SSW)    
Max Wind Speed 29 mph    
Max Gust Speed 41 mph    
Visibility 10 miles    
Events      
T = Trace of Precipitation, MM = Missing Value Source: NWS Daily Summary

Daily Weather History Graph

Daily Weather History Graph

Search for Another Location

Airport:

Trip Planner

Search our weather history database for the weather conditions in past years. The results will help you decide how hot, cold, wet, or windy it might be!

Date:

Astronomy

Jan. 11, 2013 Rise Set
Actual Time 7:31 AM CST 5:20 PM CST
Civil Twilight 7:02 AM CST 5:49 PM CST
Nautical Twilight 6:30 AM CST 6:21 PM CST
Astronomical Twilight 5:59 AM CST 6:52 PM CST
Moon 7:06 AM CST (1/11) 5:38 PM CST (1/11)
Length of Visible Light 10h 46m
Length of Day
9h 49m
Waning Crescent, 0% of the Moon is Illuminated
Jan 11
Waning Crescent
Jan 11
New
Jan 18
First Quarter
Jan 26
Full
Feb 3
Last Quarter

Hourly Weather History & Observations

Time (CST) Temp. Dew Point Humidity Pressure Visibility Wind Dir Wind Speed Gust Speed Precip Events Conditions
12:53 AM 50.0 °F 46.9 °F 89% 29.83 in 10.0 mi SSW 17.3 mph - N/A   Overcast
1:53 AM 50.0 °F 46.9 °F 89% 29.83 in 10.0 mi SSW 12.7 mph - N/A   Overcast
2:53 AM 50.0 °F 46.9 °F 89% 29.83 in 10.0 mi SSW 15.0 mph 20.7 mph N/A   Overcast
3:01 AM 50.0 °F 46.4 °F 87% 29.84 in 10.0 mi South 15.0 mph - N/A   Overcast
3:08 AM 50.0 °F 46.4 °F 87% 29.84 in 10.0 mi SSW 16.1 mph - N/A   Overcast
3:20 AM 50.0 °F 46.4 °F 87% 29.84 in 10.0 mi SSW 13.8 mph 21.9 mph N/A   Overcast
3:40 AM 48.2 °F 46.4 °F 93% 29.83 in 10.0 mi SSW 17.3 mph 23.0 mph N/A   Overcast
3:53 AM 48.9 °F 46.0 °F 90% 29.82 in 10.0 mi SSW 12.7 mph - N/A   Overcast
4:12 AM 48.2 °F 44.6 °F 87% 29.82 in 10.0 mi SSW 16.1 mph - N/A   Overcast
4:53 AM 48.0 °F 45.0 °F 89% 29.81 in 10.0 mi South 17.3 mph - N/A   Mostly Cloudy
5:09 AM 48.2 °F 44.6 °F 87% 29.80 in 10.0 mi South 13.8 mph - N/A   Scattered Clouds
5:53 AM 46.9 °F 44.1 °F 90% 29.78 in 10.0 mi South 15.0 mph - N/A   Clear
6:53 AM 48.9 °F 44.1 °F 83% 29.78 in 10.0 mi SSW 18.4 mph 26.5 mph N/A   Clear
7:53 AM 48.9 °F 43.0 °F 80% 29.79 in 10.0 mi South 18.4 mph - N/A   Clear
8:53 AM 50.0 °F 43.0 °F 77% 29.79 in 10.0 mi South 21.9 mph 29.9 mph N/A   Clear
9:53 AM 55.0 °F 44.1 °F 67% 29.78 in 10.0 mi South 20.7 mph 29.9 mph N/A   Clear
10:53 AM 57.9 °F 43.0 °F 58% 29.77 in 10.0 mi SSW 24.2 mph 34.5 mph N/A   Clear
11:53 AM 60.1 °F 43.0 °F 53% 29.74 in 10.0 mi SSW 24.2 mph 34.5 mph N/A   Clear
12:53 PM 63.0 °F 43.0 °F 48% 29.72 in 10.0 mi SSW 24.2 mph 33.4 mph N/A   Clear
1:53 PM 64.4 °F 42.8 °F 45% 29.70 in 10.0 mi South 21.9 mph 32.2 mph N/A   Clear
2:53 PM 64.0 °F 43.0 °F 46% 29.68 in 10.0 mi South 18.4 mph 25.3 mph N/A   Clear
3:53 PM 64.9 °F 43.0 °F 45% 29.68 in 10.0 mi South 20.7 mph 25.3 mph N/A   Clear
4:53 PM 63.0 °F 43.0 °F 48% 29.69 in 10.0 mi South 16.1 mph - N/A   Clear
5:53 PM 62.1 °F 43.0 °F 50% 29.69 in 10.0 mi South 17.3 mph 23.0 mph N/A   Clear
6:53 PM 62.1 °F 42.1 °F 48% 29.70 in 10.0 mi South 19.6 mph 31.1 mph N/A   Clear
7:53 PM 63.0 °F 42.1 °F 46% 29.71 in 10.0 mi South 23.0 mph 28.8 mph N/A   Clear
8:53 PM 62.1 °F 42.1 °F 48% 29.74 in 10.0 mi South 17.3 mph 25.3 mph N/A   Clear
9:53 PM 61.0 °F 43.0 °F 52% 29.74 in 10.0 mi South 19.6 mph 27.6 mph N/A   Clear
10:53 PM 61.0 °F 44.1 °F 54% 29.75 in 10.0 mi South 18.4 mph 25.3 mph N/A   Clear
11:53 PM 59.0 °F 44.1 °F 58% 29.76 in 10.0 mi South 18.4 mph 24.2 mph N/A   Clear